Regional Weather Roundup
Issued by NWS

Home | Current Version | Previous Version | Graphics & Text | Print | Product List | Glossary On
Versions: 1 2 3 4 5 6 7 8 9 10 11 12 13 14 15 16 17 18 19 20 21 22 23 24 25 26 27 28 29 30 31 32 33 34 35 36 37 38 39 40 41 42 43 44 45 46 47 48 49 50
000
ASUS43 KIND 200559
RWRIN

WEATHER ROUNDUP FOR INDIANA
NATIONAL WEATHER SERVICE INDIANAPOLIS IN
100 AM EST FRI JAN 20 2017

NOTE: "FAIR" INDICATES FEW OR NO CLOUDS BELOW 12,000 FEET WITH NO
SIGNIFICANT WEATHER AND/OR OBSTRUCTIONS TO VISIBILITY.

* - STATION DOES NOT REPORT WEATHER SUCH AS PRECIPITATION OR FOG.

+ - STATION NOT QUALITY CONTROLLED BY THE NATIONAL WEATHER SERVICE.
    USE DATA WITH CAUTION...ESPECIALLY DEWPOINT AND RELATIVE
    HUMIDITY OBSERVATIONS.

INZ001>003-010>013-019-020-200700-
NORTHWEST INDIANA

CITY           SKY/WX    TMP DP  RH WIND       PRES   REMARKS
KNOX *+        CLOUDY    37  34  87 E8        29.69F
MONTICELLO +   LGT RAIN  41  40  95 E7        29.67F
6HR MIN TEMP:  39; 6HR MAX TEMP:  41; 6HR PCP:  0.78;


$$

LMZ046-743>745-200700-
SOUTHERN LAKE MICHIGAN

STATION/POSITION TIME  TEMP    WIND        PRES    WAVE
                       AIR SEA DIR/SP/G            HT
                 (UTC) (F)     (DEG/KT/KT) (MB)    (FT)
BURNS HARBOR     0540   35      70/  7/  9 1006.8F
MICHIGAN CITY    0530   38      50/  8/  8   N/A

$$

INZ004-005-014>016-021>024-200700-
NORTH CENTRAL INDIANA

CITY           SKY/WX    TMP DP  RH WIND       PRES   REMARKS
GOSHEN         LGT RAIN  39  35  86 E13       29.72F FOG
6HR MIN TEMP:  37; 6HR MAX TEMP:  39; 6HR PCP:  0.09;

PERU/GRISSOM   MIX PCPN  43  43 100 E12       29.65F
SOUTH BEND     LGT RAIN  37  37 100 E8        29.72F FOG
6HR MIN TEMP:  37; 6HR MAX TEMP:  38; 6HR PCP:  0.25;


$$

INZ006>009-017-018-025>027-200700-
NORTHEAST INDIANA

CITY           SKY/WX    TMP DP  RH WIND       PRES   REMARKS
ANGOLA *+      CLOUDY    36  36 100 E12       29.76F
FORT WAYNE     RAIN      40  37  89 E9        29.74F FOG
6HR MIN TEMP:  40; 6HR MAX TEMP:  41; 6HR PCP:  0.17;

KENDALLVILLE + LGT RAIN  37  37 100 E9        29.74F

$$

INZ028-029-035-036-043>045-051>053-200700-
WEST CENTRAL INDIANA

CITY           SKY/WX    TMP DP  RH WIND       PRES   REMARKS
CRAWFORDSVL +  LGT SNOW  42  42 100 E8        29.63F
6HR MIN TEMP:  41; 6HR MAX TEMP:  42; 6HR PCP:  0.55;

LAFAYETTE      LGT RAIN  42  42 100 E9        29.64F FOG
6HR MIN TEMP:  41; 6HR MAX TEMP:  42; 6HR PCP:  0.52;

TERRE HAUTE    LGT RAIN  47  45  93 S3        29.63F FOG
6HR MIN TEMP:  44; 6HR MAX TEMP:  47; 6HR PCP:  0.34;


$$

INZ030>032-037>040-046>048-054>057-064-065-200700-
CENTRAL INDIANA

CITY           SKY/WX    TMP DP  RH WIND       PRES   REMARKS
INDIANAPOLIS   RAIN      44  43  96 E8        29.64F FOG
6HR MIN TEMP:  44; 6HR MAX TEMP:  44; 6HR PCP:  0.61;

-EAGLE CREEK   LGT RAIN  45  43  93 E8        29.64F FOG
6HR MIN TEMP:  44; 6HR MAX TEMP:  45; 6HR PCP:  0.56;

KOKOMO +       RAIN      42  41  96 E13       29.67F FOG
6HR MIN TEMP:  40; 6HR MAX TEMP:  42; 6HR PCP:  0.53;

MT COMFORT *+  CLOUDY    43  43 100 E7        29.65F
SHELBYVILLE    LGT RAIN  46  43  89 E8        29.64F
6HR MIN TEMP:  45; 6HR MAX TEMP:  46; 6HR PCP:  0.94;


$$

INZ033-034-041-042-049-050-058-059-200700-
EAST CENTRAL INDIANA

CITY           SKY/WX    TMP DP  RH WIND       PRES   REMARKS
MUNCIE         LGT RAIN  44  41  89 E8        29.67F FOG
6HR MIN TEMP:  44; 6HR MAX TEMP:  44; 6HR PCP:  0.73;


$$

INZ060-061-067>069-081>083-085>088-200700-
SOUTHWEST INDIANA

CITY           SKY/WX    TMP DP  RH WIND       PRES   REMARKS
EVANSVILLE     LGT RAIN  53  52  96 SW3       29.64F VSB 3/4
6HR MIN TEMP:  52; 6HR MAX TEMP:  54; 6HR PCP:  0.27;


$$

INZ062-063-066-070>080-084-089>092-200700-
SOUTH CENTRAL AND SOUTHEAST INDIANA

CITY           SKY/WX    TMP DP  RH WIND       PRES   REMARKS
BLOOMINGTON    LGT RAIN  46  44  93 SE6       29.63F FOG
6HR MIN TEMP:  45; 6HR MAX TEMP:  46; 6HR PCP:  0.43;

MADISON *+     CLOUDY    48  46  93 E6        29.65F
SEYMOUR +      LGT RAIN  48  48 100 CALM      29.64F

$$





USA.gov is the U.S. government's official web portal to all federal, state and local government web resources and services.